AG1T-20 Weather Reports


Display with metric or nautical units.
time (UTC)temp
F
wind
direction
speed
MPH
gust
MPH
rain 1hr
in
rain 24hr
in
rain mn
in
humidity
%
barometer
mb
20260906233005 78 110 0.0 5.0 0.00 0.00 0.00 34 1019.7
20260906232005 78 228 1.0 5.0 0.00 0.00 0.00 36 1019.6
20260906231005 79 218 1.0 6.0 0.00 0.00 0.00 34 1019.7
20260906230005 78 200 2.0 8.0 0.00 0.00 0.00 34 1019.8
20260906225005 79 202 2.0 9.0 0.00 0.00 0.00 32 1019.7
20260906224005 79 205 3.0 12.0 0.00 0.00 0.00 32 1019.8
20260906223005 80 230 4.0 17.0 0.00 0.00 0.00 30 1019.3
20260906222004 80 231 3.0 15.0 0.00 0.00 0.00 31 1019.4
20260906221004 81 199 3.0 15.0 0.00 0.00 0.00 32 1019.2
20260906220005 81 192 3.0 14.0 0.00 0.00 0.00 31 1019.1
20260906215005 81 249 3.0 16.0 0.00 0.00 0.00 29 1019.3
20260906214005 82 226 4.0 19.0 0.00 0.00 0.00 30 1019.0
20260906213004 82 256 3.0 16.0 0.00 0.00 0.00 29 1018.8
20260906212005 81 235 3.0 14.0 0.00 0.00 0.00 30 1019.4
20260906211005 82 216 3.0 13.0 0.00 0.00 0.00 29 1019.2
20260906210004 82 193 3.0 17.0 0.00 0.00 0.00 26 1019.1
20260906205005 82 192 2.0 13.0 0.00 0.00 0.00 26 1019.3
20260906204004 81 254 2.0 12.0 0.00 0.00 0.00 28 1019.9
20260906203004 81 216 2.0 12.0 0.00 0.00 0.00 29 1020.0
20260906202004 81 268 2.0 11.0 0.00 0.00 0.00 27 1020.3
20260906201004 82 213 2.0 10.0 0.00 0.00 0.00 30 1020.2
20260906200004 80 204 2.0 10.0 0.00 0.00 0.00 30 1020.9
20260906195005 79 226 3.0 14.0 0.00 0.00 0.00 29 1021.4
20260906194004 80 257 2.0 13.0 0.00 0.00 0.00 28 1021.4
20260906193004 80 241 3.0 13.0 0.00 0.00 0.00 30 1021.1
20260906192004 79 249 3.0 14.0 0.00 0.00 0.00 30 1021.4
20260906191004 81 226 3.0 17.0 0.00 0.00 0.00 27 1021.0
20260906190004 80 266 3.0 14.0 0.00 0.00 0.00 26 1021.2
20260906185004 81 219 4.0 18.0 0.00 0.00 0.00 26 1021.3
20260906184004 80 241 4.0 18.0 0.00 0.00 0.00 27 1021.5
20260906183005 81 229 3.0 17.0 0.00 0.00 0.00 27 1021.3
20260906182005 80 215 4.0 15.0 0.00 0.00 0.00 27 1021.8
20260906181004 81 173 4.0 17.0 0.00 0.00 0.00 29 1021.8
20260906180005 80 231 3.0 15.0 0.00 0.00 0.00 27 1022.2
20260906175004 80 261 3.0 17.0 0.00 0.00 0.00 27 1022.6
20260906174004 79 236 5.0 18.0 0.00 0.00 0.00 25 1022.9
20260906173004 79 217 4.0 16.0 0.00 0.00 0.00 28 1023.1
20260906172004 78 192 4.0 19.0 0.00 0.00 0.00 25 1023.2
20260906171004 78 227 4.0 19.0 0.00 0.00 0.00 27 1023.5
20260906170004 78 243 4.0 19.0 0.00 0.00 0.00 28 1023.6
20260906165004 77 194 4.0 18.0 0.00 0.00 0.00 30 1023.7
20260906164005 77 204 3.0 19.0 0.00 0.00 0.00 28 1023.5
20260906163004 77 160 2.0 11.0 0.00 0.00 0.00 31 1023.9
20260906162004 76 247 1.0 8.0 0.00 0.00 0.00 34 1024.2
20260906161004 74 269 1.0 7.0 0.00 0.00 0.00 35 1025.1
20260906160004 72 235 0.0 4.0 0.00 0.00 0.00 35 1025.9
20260906155004 71 46 0.0 4.0 0.00 0.00 0.00 37 1026.2
20260906154004 69 350 1.0 5.0 0.00 0.00 0.00 42 1026.8
20260906153004 68 314 1.0 5.0 0.00 0.00 0.00 40 1027.5
20260906152004 67 351 0.0 3.0 0.00 0.00 0.00 41 1027.5
20260906151004 66 333 0.0 4.0 0.00 0.00 0.00 44 1027.9
20260906150004 64 301 0.0 4.0 0.00 0.00 0.00 43 1028.4
20260906145004 63 347 0.0 6.0 0.00 0.00 0.00 46 1028.8
20260906144004 62 315 1.0 7.0 0.00 0.00 0.00 47 1028.9
20260906143004 60 33 1.0 6.0 0.00 0.00 0.00 46 1029.6
20260906142004 60 106 1.0 5.0 0.00 0.00 0.00 46 1029.7
20260906141004 59 54 0.0 6.0 0.00 0.00 0.00 47 1030.2
20260906140004 58 3 1.0 6.0 0.00 0.00 0.00 45 1030.1
20260906135004 57 17 1.0 5.0 0.00 0.00 0.00 47 1030.5
20260906134004 53 21 1.0 6.0 0.00 0.00 0.00 57 1031.8
20260906133004 54 3 1.0 6.0 0.00 0.00 0.00 53 1031.5
20260906132005 55 19 1.0 4.0 0.00 0.00 0.00 48 1030.8
20260906131004 53 48 0.0 3.0 0.00 0.00 0.00 53 1031.4
20260906130004 53 19 0.0 3.0 0.00 0.00 0.00 61 1031.5
20260906125004 53 23 0.0 3.0 0.00 0.00 0.00 55 1031.6
20260906124004 53 58 0.0 3.0 0.00 0.00 0.00 58 1031.4
20260906123005 53 354 0.0 4.0 0.00 0.00 0.00 55 1031.2
20260906122005 53 351 0.0 4.0 0.00 0.00 0.00 57 1031.0
20260906121004 54 3 0.0 3.0 0.00 0.00 0.00 54 1030.6
20260906120005 54 353 1.0 4.0 0.00 0.00 0.00 50 1030.6
20260906115004 55 6 1.0 5.0 0.00 0.00 0.00 49 1030.4
20260906114004 55 14 1.0 5.0 0.00 0.00 0.00 48 1030.3
20260906113005 56 27 0.0 4.0 0.00 0.00 0.00 49 1029.9
20260906112005 61 307 1.0 10.0 0.00 0.00 0.00 42 1028.3
20260906111004 65 163 2.0 9.0 0.00 0.00 0.00 31 1026.9
20260906110004 65 203 2.0 14.0 0.00 0.00 0.00 30 1026.6
20260906105004 66 188 2.0 11.0 0.00 0.00 0.00 30 1026.5
20260906104005 64 211 2.0 10.0 0.00 0.00 0.00 31 1026.9
20260906103004 64 168 2.0 11.0 0.00 0.00 0.00 35 1027.1
20260906102004 62 152 1.0 6.0 0.00 0.00 0.00 37 1027.5
20260906101004 63 105 2.0 8.0 0.00 0.00 0.00 35 1027.3
20260906100004 60 104 1.0 8.0 0.00 0.00 0.00 37 1028.3
20260906095005 56 134 0.0 5.0 0.00 0.00 0.00 47 1029.5
20260906094004 56 66 0.0 3.0 0.00 0.00 0.00 52 1029.5
20260906093005 57 41 1.0 4.0 0.00 0.00 0.00 48 1029.2
20260906092005 56 37 1.0 5.0 0.00 0.00 0.00 52 1029.7
20260906091004 54 27 1.0 6.0 0.00 0.00 0.00 55 1029.9
20260906090004 55 8 1.0 5.0 0.00 0.00 0.00 54 1029.6
20260906085004 56 13 0.0 3.0 0.00 0.00 0.00 53 1029.0
20260906084004 61 105 1.0 7.0 0.00 0.00 0.00 47 1027.4
20260906083004 68 188 1.0 8.0 0.00 0.00 0.00 28 1024.9
20260906082004 68 192 2.0 8.0 0.00 0.00 0.00 27 1024.9
20260906081004 69 158 2.0 9.0 0.00 0.00 0.00 27 1024.7
20260906080004 71 172 2.0 12.0 0.00 0.00 0.00 24 1024.2
20260906075005 70 174 2.0 10.0 0.00 0.00 0.00 25 1024.5
20260906074005 68 192 2.0 9.0 0.00 0.00 0.00 27 1025.1
20260906073005 67 176 2.0 11.0 0.00 0.00 0.00 28 1025.4
20260906072004 67 150 2.0 9.0 0.00 0.00 0.00 29 1025.5
20260906071004 64 178 1.0 8.0 0.00 0.00 0.00 34 1026.6
20260906070004 58 231 0.0 5.0 0.00 0.00 0.00 50 1028.3
20260906065004 58 44 0.0 3.0 0.00 0.00 0.00 51 1028.3
20260906064004 59 56 0.0 4.0 0.00 0.00 0.00 48 1028.0
20260906063005 58 45 0.0 2.0 0.00 0.00 0.00 52 1028.5
20260906062004 58 29 1.0 5.0 0.00 0.00 0.00 51 1028.6
20260906061004 59 312 1.0 5.0 0.00 0.00 0.00 51 1027.9
20260906060004 60 132 1.0 6.0 0.00 0.00 0.00 48 1027.9
20260906055004 59 42 1.0 8.0 0.00 0.00 0.00 53 1028.1
20260906054004 58 25 0.0 3.0 0.00 0.00 0.00 51 1028.3
20260906053004 59 133 0.0 3.0 0.00 0.00 0.00 53 1028.2
20260906052004 60 257 0.0 3.0 0.00 0.00 0.00 52 1027.8
20260906051004 60 353 0.0 2.0 0.00 0.00 0.00 48 1027.6
20260906050004 60 69 0.0 3.0 0.00 0.00 0.00 50 1027.7
20260906045004 61 290 0.0 3.0 0.00 0.00 0.00 47 1027.5
20260906044004 61 70 0.0 1.0 0.00 0.00 0.00 46 1027.4
20260906043004 62 156 0.0 2.0 0.00 0.00 0.00 45 1027.0
20260906042004 63 318 0.0 2.0 0.00 0.00 0.00 42 1026.7
20260906041008 64 2 0.0 2.0 0.00 0.00 0.00 40 1026.4
20260906040004 64 10 0.0 2.0 0.00 0.00 0.00 40 1026.4
20260906035005 64 62 0.0 5.0 0.00 0.00 0.00 40 1026.3
20260906034005 65 145 0.0 3.0 0.00 0.00 0.00 40 1025.9
20260906033005 66 206 1.0 5.0 0.00 0.00 0.00 38 1025.2
20260906032005 66 210 1.0 5.0 0.00 0.00 0.00 38 1025.2
20260906031005 69 231 1.0 6.0 0.00 0.00 0.00 34 1024.3
20260906030005 69 211 1.0 5.0 0.00 0.00 0.00 33 1024.1
20260906025005 68 232 0.0 4.0 0.00 0.00 0.00 37 1024.6
20260906024005 68 276 0.0 3.0 0.00 0.00 0.00 38 1024.3
20260906023005 68 150 0.0 3.0 0.00 0.00 0.00 38 1024.1
20260906022005 69 143 0.0 3.0 0.00 0.00 0.00 39 1023.9
20260906021005 70 199 0.0 3.0 0.00 0.00 0.00 36 1023.6
20260906020005 72 130 1.0 3.0 0.00 0.00 0.00 36 1023.0
20260906015005 73 125 0.0 4.0 0.00 0.00 0.00 33 1022.7
20260906014005 75 89 0.0 2.0 0.00 0.00 0.00 34 1022.2
20260906013005 79 87 1.0 3.0 0.00 0.00 0.00 30 1020.9
20260906012005 81 89 1.0 4.0 0.00 0.00 0.00 28 1020.6
20260906011005 81 109 0.0 2.0 0.00 0.00 0.00 21 1020.6
20260906010005 86 182 0.0 3.0 0.00 0.00 0.00 24 1019.2
20260906005005 85 219 1.0 4.0 0.00 0.00 0.00 22 1019.4
20260906004005 83 205 1.0 6.0 0.00 0.00 0.00 24 1020.0
20260906003005 85 214 2.0 12.0 0.00 0.00 0.00 21 1019.6
20260906002005 85 223 2.0 9.0 0.00 0.00 0.00 21 1019.3
20260906001005 87 235 2.0 8.0 0.00 0.00 0.00 18 1018.6
20260906000005 87 226 1.0 7.0 0.00 0.00 0.00 19 1018.9
20260905235005 85 239 3.0 13.0 0.00 0.00 0.00 20 1019.1
20260905234005 85 201 4.0 19.0 0.00 0.00 0.00 19 1019.1